�N����,����,�~����,�C��,���x,�C��,����,���ϕ���,�ő�u�ԕ���,�ő厞����,���˗�,�I�_���x,�n�����x,�ő啗���N��,DTYPE
"17/06/16","00:10",0.0,20.3,64.8,1002.6,326.0,1.5,2.5,334.6,0.00,13.5,21.7,"00:00:08",1
"17/06/16","00:20",0.0,20.4,63.5,1002.4,293.6,1.1,1.7,274.3,0.00,13.3,21.7,"00:17:20",1
"17/06/16","00:30",0.0,20.5,63.2,1002.6,322.4,1.8,2.4,336.8,0.00,13.3,21.8,"00:27:52",1
"17/06/16","00:40",0.0,20.6,63.4,1002.6,329.7,2.0,2.9,335.1,0.00,13.5,21.5,"00:32:00",1
"17/06/16","00:50",0.0,20.9,62.2,1002.4,318.3,2.1,3.6,319.4,0.00,13.4,21.7,"00:45:20",1
"17/06/16","01:00",0.0,21.1,62.0,1002.4,328.5,2.8,5.1,336.2,0.00,13.6,21.7,"00:57:04",1
"17/06/16","01:10",0.0,20.9,62.0,1002.6,327.8,2.1,3.1,322.4,0.00,13.4,21.5,"01:07:44",1
"17/06/16","01:20",0.0,20.6,62.9,1001.9,294.7,1.3,2.8,326.6,0.00,13.3,21.6,"01:10:40",1
"17/06/16","01:30",0.0,20.3,64.5,1002.4,318.0,1.3,2.2,314.9,0.00,13.4,21.4,"01:21:36",1
"17/06/16","01:40",0.0,20.2,65.0,1001.7,336.7,0.7,1.4,318.2,0.00,13.5,21.4,"01:34:56",1
"17/06/16","01:50",0.0,19.9,67.1,1001.7,263.5,0.6,1.0,282.5,0.00,13.7,21.4,"01:47:20",1
"17/06/16","02:00",0.0,19.6,69.5,1001.5,329.0,1.3,2.1,345.2,0.00,13.9,21.2,"01:59:36",1
"17/06/16","02:10",0.0,19.3,70.1,1001.7,332.8,1.7,2.4,332.0,0.00,13.8,21.1,"02:00:56",1
"17/06/16","02:20",0.0,19.3,69.7,1001.9,296.9,1.5,3.1,329.4,0.00,13.7,21.1,"02:11:52",1
"17/06/16","02:30",0.0,19.3,69.4,1001.9,305.8,1.1,1.8,322.6,0.00,13.6,21.1,"02:23:28",1
"17/06/16","02:40",0.0,19.1,70.5,1001.9,330.9,1.5,2.2,336.6,0.00,13.7,21.1,"02:38:40",1
"17/06/16","02:50",0.0,18.7,70.9,1002.2,287.7,1.1,1.8,328.7,0.00,13.4,21.1,"02:40:32",1
"17/06/16","03:00",0.0,18.7,71.2,1001.9,284.3,1.2,1.8,303.9,0.00,13.4,20.8,"02:58:24",1
"17/06/16","03:10",0.0,18.6,71.9,1002.2,315.5,1.5,2.5,331.3,0.00,13.5,20.7,"03:08:48",1
"17/06/16","03:20",0.0,18.4,72.9,1002.2,306.0,1.3,2.7,335.2,0.00,13.5,20.7,"03:10:32",1
"17/06/16","03:30",0.0,18.2,73.9,1002.4,311.1,1.5,2.4,324.5,0.00,13.5,20.6,"03:28:56",1
"17/06/16","03:40",0.0,18.4,73.7,1002.6,322.9,1.6,2.8,346.9,0.00,13.7,20.6,"03:35:04",1
"17/06/16","03:50",0.0,18.4,73.4,1002.6,314.3,1.6,3.1,337.8,0.00,13.6,20.5,"03:40:08",1
"17/06/16","04:00",0.0,18.3,74.8,1002.6,325.8,1.2,2.1,339.5,0.00,13.8,20.5,"03:52:56",1
"17/06/16","04:10",0.0,18.0,75.8,1002.6,331.9,1.5,2.9,326.9,0.00,13.7,20.4,"04:08:48",1
"17/06/16","04:20",0.0,18.0,75.9,1002.9,328.5,1.8,3.4,340.3,0.00,13.7,20.3,"04:19:36",1
"17/06/16","04:30",0.0,18.1,76.4,1002.9,333.0,2.1,3.6,328.7,0.00,13.9,20.3,"04:29:04",1
"17/06/16","04:40",0.0,18.2,76.0,1002.6,330.1,1.8,3.3,329.4,0.00,13.9,20.6,"04:34:40",1
"17/06/16","04:50",0.0,18.1,76.2,1003.1,326.4,1.7,2.7,337.4,0.00,13.9,20.2,"04:48:32",1
"17/06/16","05:00",0.0,18.1,75.8,1003.6,303.4,1.5,3.2,338.4,0.00,13.8,20.2,"04:50:16",1
"17/06/16","05:10",0.0,18.0,76.7,1003.8,313.9,1.2,2.1,304.9,0.00,13.9,20.1,"05:02:24",1
"17/06/16","05:20",0.0,17.9,76.7,1003.4,307.8,1.3,2.7,333.2,0.00,13.8,20.2,"05:14:24",1
"17/06/16","05:30",0.0,17.7,77.4,1003.6,290.5,0.6,1.7,326.0,0.00,13.7,19.9,"05:20:32",1
"17/06/16","05:40",0.0,17.6,78.8,1003.6,323.0,1.1,1.6,342.3,0.00,13.9,20.1,"05:32:56",1
"17/06/16","05:50",0.0,17.6,79.1,1003.6,346.0,0.6,1.4,344.6,0.00,14.0,19.7,"05:40:08",1
"17/06/16","06:00",0.0,17.8,80.9,1003.8,317.9,1.2,2.1,330.8,0.02,14.5,19.7,"05:54:48",1
"17/06/16","06:10",0.0,18.1,80.8,1003.8,320.1,1.0,1.4,319.5,0.03,14.8,19.9,"06:07:44",1
"17/06/16","06:20",0.0,18.5,79.5,1004.3,306.9,1.0,1.2,309.1,0.04,14.9,20.1,"06:15:04",1
"17/06/16","06:30",0.0,19.3,77.0,1004.3,312.8,1.1,1.7,328.2,0.06,15.2,20.1,"06:29:52",1
"17/06/16","06:40",0.0,20.2,74.1,1003.8,331.0,1.3,2.4,335.2,0.07,15.5,20.3,"06:34:16",1
"17/06/16","06:50",0.0,20.9,72.6,1004.3,334.6,1.3,2.2,337.8,0.09,15.8,20.3,"06:45:36",1
"17/06/16","07:00",0.0,20.9,70.5,1004.5,334.0,1.7,3.2,341.5,0.09,15.4,20.5,"06:56:32",1
"17/06/16","07:10",0.0,20.9,70.3,1004.5,325.1,2.0,3.5,343.9,0.09,15.3,20.3,"07:04:24",1
"17/06/16","07:20",0.0,21.1,70.6,1004.5,327.8,2.1,3.6,335.8,0.12,15.6,20.6,"07:11:36",1
"17/06/16","07:30",0.0,21.7,69.5,1004.3,326.9,1.5,3.3,345.2,0.16,15.9,20.9,"07:24:48",1
"17/06/16","07:40",0.0,22.4,66.1,1004.3,315.0,1.6,3.9,349.2,0.22,15.8,20.9,"07:36:48",1
"17/06/16","07:50",0.0,22.6,66.5,1004.3,312.8,1.8,3.6,342.7,0.21,16.1,21.0,"07:48:40",1
"17/06/16","08:00",0.0,23.3,65.9,1004.1,346.6,1.7,4.0,341.2,0.25,16.6,21.4,"07:56:16",1
"17/06/16","08:10",0.0,23.2,64.7,1004.1,342.3,2.5,5.2,344.9,0.24,16.2,21.2,"08:05:44",1
"17/06/16","08:20",0.0,23.3,63.6,1004.1,353.4,2.6,6.3,348.7,0.28,16.1,21.4,"08:13:20",1
"17/06/16","08:30",0.0,24.2,62.4,1004.1,345.4,2.2,4.5,16.4,0.36,16.6,21.9,"08:24:16",1
"17/06/16","08:40",0.0,24.2,61.2,1004.1,328.8,2.1,5.4,342.2,0.35,16.3,21.8,"08:34:16",1
"17/06/16","08:50",0.0,23.8,61.2,1003.6,275.3,1.2,2.7,338.6,0.30,15.9,22.3,"08:43:28",1
"17/06/16","09:00",0.0,23.3,63.6,1003.8,288.7,1.3,2.8,231.2,0.19,16.1,22.3,"08:58:40",1
"17/06/16","09:10",0.0,24.5,60.0,1003.6,336.0,2.2,5.7,333.0,0.36,16.3,22.7,"09:06:56",1
"17/06/16","09:20",0.0,25.0,57.5,1003.6,10.1,1.6,3.4,14.6,0.42,16.1,22.7,"09:14:56",1
"17/06/16","09:30",0.0,24.5,59.0,1003.1,343.2,2.3,5.1,343.4,0.32,16.0,22.8,"09:28:00",1
"17/06/16","09:40",0.0,24.2,58.3,1003.1,7.3,2.6,5.0,37.5,0.35,15.5,23.2,"09:38:48",1
"17/06/16","09:50",0.0,23.8,60.0,1002.9,359.1,2.3,5.1,355.8,0.22,15.6,23.4,"09:42:56",1
"17/06/16","10:00",0.0,24.7,57.8,1002.9,4.7,2.0,4.2,57.5,0.35,15.9,23.3,"09:50:08",1
"17/06/16","10:10",0.0,25.9,54.9,1002.6,350.3,2.0,4.1,22.3,0.52,16.2,23.7,"10:02:56",1
"17/06/16","10:20",0.0,25.7,55.6,1003.1,10.3,2.1,4.5,349.0,0.52,16.2,23.9,"10:17:04",1
"17/06/16","10:30",0.0,24.8,57.3,1002.2,3.7,2.0,4.5,345.3,0.30,15.8,24.1,"10:29:52",1
"17/06/16","10:40",0.0,24.2,59.5,1002.9,341.0,2.5,5.4,16.8,0.20,15.9,24.0,"10:37:20",1
"17/06/16","10:50",0.0,23.9,61.0,1003.1,345.6,2.3,4.9,6.1,0.21,16.0,24.1,"10:45:28",1
"17/06/16","11:00",0.0,23.6,61.3,1003.1,342.0,2.6,4.8,317.1,0.19,15.8,24.1,"10:50:24",1
"17/06/16","11:10",0.0,23.6,61.6,1003.4,2.5,2.7,5.9,347.3,0.25,15.8,23.8,"11:05:20",1
"17/06/16","11:20",0.0,24.7,59.0,1003.4,5.8,3.0,5.4,4.3,0.55,16.2,24.1,"11:16:56",1
"17/06/16","11:30",0.0,25.2,57.8,1003.4,349.2,2.7,5.5,337.1,0.57,16.3,24.3,"11:25:12",1
"17/06/16","11:40",0.0,24.7,57.3,1003.6,358.2,2.3,4.9,322.9,0.42,15.7,24.7,"11:30:56",1
"17/06/16","11:50",0.0,24.2,58.4,1003.6,359.1,2.6,4.7,21.0,0.32,15.6,24.8,"11:40:48",1
"17/06/16","12:00",0.0,25.1,55.9,1003.1,354.5,2.5,5.6,331.1,0.58,15.7,24.9,"11:55:52",1
"17/06/16","12:10",0.0,25.2,56.4,1002.9,348.7,2.3,6.2,332.3,0.47,16.0,25.2,"12:02:24",1
"17/06/16","12:20",0.0,25.3,53.4,1002.9,12.2,2.2,5.4,322.8,0.52,15.2,25.4,"12:13:52",1
"17/06/16","12:30",0.0,24.9,56.2,1002.4,334.2,2.2,5.6,341.4,0.33,15.6,25.2,"12:25:04",1
"17/06/16","12:40",0.0,25.7,51.4,1002.4,352.1,2.2,5.2,0.3,0.51,15.0,25.8,"12:32:32",1
"17/06/16","12:50",0.0,26.2,48.0,1001.9,17.0,2.2,4.1,58.7,0.58,14.4,25.6,"12:44:24",1
"17/06/16","13:00",0.0,26.3,49.6,1002.2,343.2,2.7,6.4,338.1,0.59,15.0,26.0,"12:58:48",1
"17/06/16","13:10",0.0,26.2,48.4,1002.2,353.1,2.5,5.0,341.4,0.61,14.5,26.0,"13:06:24",1
"17/06/16","13:20",0.0,26.4,47.7,1002.2,342.6,2.2,5.2,9.8,0.60,14.5,25.7,"13:15:20",1
"17/06/16","13:30",0.0,26.3,46.8,1002.6,353.7,2.2,6.3,328.3,0.61,14.1,25.8,"13:26:08",1
"17/06/16","13:40",0.0,26.6,46.2,1002.4,298.4,1.6,3.9,326.2,0.63,14.1,25.6,"13:31:28",1
"17/06/16","13:50",0.0,25.6,46.9,1002.4,281.7,2.1,4.3,326.3,0.44,13.5,25.4,"13:44:56",1
"17/06/16","14:00",0.0,26.5,47.9,1002.2,263.7,2.1,5.1,228.7,0.42,14.6,25.1,"13:56:32",1
"17/06/16","14:10",0.0,27.1,44.1,1001.9,263.3,1.6,4.0,230.7,0.53,13.9,25.5,"14:00:56",1
"17/06/16","14:20",0.0,27.4,43.4,1001.7,286.6,1.8,4.3,338.6,0.56,13.9,25.5,"14:15:04",1
"17/06/16","14:30",0.0,27.1,42.4,1001.5,278.3,1.8,5.2,271.1,0.52,13.3,25.6,"14:23:28",1
"17/06/16","14:40",0.0,27.2,42.7,1001.9,316.3,2.5,4.9,334.1,0.48,13.5,25.8,"14:32:40",1
"17/06/16","14:50",0.0,27.2,42.3,1001.7,315.5,2.7,5.8,330.8,0.49,13.3,25.9,"14:43:52",1
"17/06/16","15:00",0.0,27.8,43.2,1001.5,332.5,1.7,4.4,334.8,0.49,14.2,26.1,"14:54:56",1
"17/06/16","15:10",0.0,27.7,40.3,1001.5,356.9,2.7,6.4,36.8,0.47,13.0,26.1,"15:01:20",1
"17/06/16","15:20",0.0,27.5,42.8,1001.5,350.3,2.5,5.6,329.5,0.44,13.8,26.1,"15:17:20",1
"17/06/16","15:30",0.0,27.1,39.8,1001.2,334.1,2.8,5.9,347.4,0.43,12.3,26.1,"15:21:44",1
"17/06/16","15:40",0.0,26.8,40.0,1001.0,335.5,3.5,6.7,327.8,0.41,12.1,26.1,"15:37:20",1
"17/06/16","15:50",0.0,27.4,40.4,1001.2,320.8,2.5,4.8,309.7,0.39,12.8,26.0,"15:48:48",1
"17/06/16","16:00",0.0,27.8,38.2,1001.2,336.8,2.2,5.6,326.0,0.37,12.3,26.0,"15:51:20",1
"17/06/16","16:10",0.0,27.5,37.7,1001.0,311.1,2.5,6.0,332.6,0.35,11.8,26.1,"16:03:04",1
"17/06/16","16:20",0.0,27.3,39.0,1001.0,331.9,2.8,6.3,347.2,0.33,12.2,25.9,"16:16:56",1
"17/06/16","16:30",0.0,27.2,40.0,1001.5,326.2,2.8,5.5,329.5,0.31,12.5,26.1,"16:23:36",1
"17/06/16","16:40",0.0,26.7,38.3,1001.7,346.0,3.4,8.1,333.6,0.29,11.4,25.8,"16:37:04",1
"17/06/16","16:50",0.0,26.1,37.0,1001.7,331.4,4.4,8.8,331.7,0.25,10.3,25.7,"16:47:36",1
"17/06/16","17:00",0.0,26.0,39.7,1001.9,340.4,3.6,7.8,342.9,0.18,11.3,25.3,"16:53:04",1
"17/06/16","17:10",0.0,25.8,38.9,1001.7,335.5,3.7,8.0,333.5,0.01,10.8,25.5,"17:08:08",1
"17/06/16","17:20",0.0,25.8,39.5,1001.9,334.8,3.1,6.5,326.2,0.01,11.0,25.5,"17:14:24",1
"17/06/16","17:30",0.0,25.5,41.9,1002.2,325.8,3.6,9.1,334.6,0.01,11.7,25.4,"17:21:44",1
"17/06/16","17:40",0.0,25.5,45.9,1002.2,345.4,2.2,5.0,348.5,0.01,13.0,25.4,"17:30:40",1
"17/06/16","17:50",0.0,24.7,47.6,1002.2,351.9,3.1,8.0,318.8,0.00,12.9,25.0,"17:47:12",1
"17/06/16","18:00",0.0,23.9,50.5,1002.2,350.6,3.1,6.6,349.9,0.00,13.0,24.9,"17:51:52",1
"17/06/16","18:10",0.0,23.3,51.5,1002.6,356.3,3.5,6.0,1.6,0.00,12.8,24.8,"18:01:04",1
"17/06/16","18:20",0.0,22.8,52.7,1003.1,359.1,3.4,7.3,353.2,0.00,12.7,24.6,"18:14:48",1
"17/06/16","18:30",0.0,22.4,53.9,1003.4,359.8,3.4,5.2,345.6,0.01,12.7,24.5,"18:24:00",1
"17/06/16","18:40",0.0,21.9,55.1,1003.4,1.1,3.2,5.9,26.8,0.02,12.5,24.3,"18:38:48",1
"17/06/16","18:50",0.0,21.3,56.9,1003.6,1.9,2.8,4.8,359.0,0.00,12.5,24.0,"18:45:36",1
"17/06/16","19:00",0.0,20.7,58.6,1003.6,357.1,2.8,4.9,343.1,0.00,12.3,23.9,"18:50:48",1
"17/06/16","19:10",0.0,20.3,59.3,1003.8,355.9,3.2,6.0,350.8,0.00,12.2,23.9,"19:04:00",1
"17/06/16","19:20",0.0,20.0,60.3,1004.3,355.3,2.7,6.6,341.2,0.00,12.1,23.5,"19:10:40",1
"17/06/16","19:30",0.0,19.7,61.3,1004.3,348.3,2.8,6.6,6.6,0.00,12.1,23.4,"19:20:24",1
"17/06/16","19:40",0.0,19.5,62.1,1004.5,337.1,2.8,5.5,330.7,0.00,12.1,23.2,"19:34:00",1
"17/06/16","19:50",0.0,19.3,63.6,1005.0,338.2,2.3,5.4,328.9,0.00,12.3,23.1,"19:44:56",1
"17/06/16","20:00",0.0,19.0,64.9,1005.5,326.1,2.7,5.2,326.3,0.00,12.3,23.1,"19:57:52",1
"17/06/16","20:10",0.0,18.8,65.4,1005.5,337.2,2.3,4.4,346.5,0.00,12.2,22.8,"20:01:04",1
"17/06/16","20:20",0.0,18.6,65.9,1005.2,335.9,2.3,4.2,339.9,0.00,12.1,22.6,"20:16:56",1
"17/06/16","20:30",0.0,18.4,66.7,1005.2,342.7,1.8,3.2,339.7,0.00,12.1,22.4,"20:25:20",1
"17/06/16","20:40",0.0,18.3,67.2,1005.2,343.9,2.1,4.4,344.0,0.00,12.2,22.2,"20:39:12",1
"17/06/16","20:50",0.0,18.2,68.0,1005.5,347.6,1.3,2.8,341.3,0.00,12.2,22.2,"20:44:40",1
"17/06/16","21:00",0.0,18.0,68.6,1005.7,341.9,1.3,3.7,324.1,0.00,12.2,22.2,"20:52:08",1
"17/06/16","21:10",0.0,17.9,69.9,1005.7,346.1,1.5,2.7,16.2,0.00,12.4,22.1,"21:09:44",1
"17/06/16","21:20",0.0,17.6,71.2,1005.7,353.8,1.3,3.5,342.2,0.00,12.4,21.9,"21:18:56",1
"17/06/16","21:30",0.0,17.2,73.0,1006.0,340.8,1.5,3.2,326.5,0.00,12.4,21.9,"21:20:08",1
"17/06/16","21:40",0.0,16.9,74.6,1005.7,339.0,1.1,2.1,340.9,0.00,12.4,21.7,"21:39:36",1
"17/06/16","21:50",0.0,16.9,74.6,1006.0,334.0,1.7,3.2,343.2,0.00,12.4,21.6,"21:41:44",1
"17/06/16","22:00",0.0,17.4,73.2,1006.2,336.7,2.0,4.9,346.2,0.00,12.6,21.6,"21:54:08",1
"17/06/16","22:10",0.0,17.7,71.3,1006.0,336.5,2.5,4.8,338.7,0.00,12.5,21.5,"22:09:04",1
"17/06/16","22:20",0.0,17.9,69.2,1006.2,337.6,2.5,5.4,345.6,0.00,12.2,21.4,"22:10:32",1
"17/06/16","22:30",0.0,17.9,68.8,1006.4,336.4,2.1,4.4,320.1,0.00,12.1,21.3,"22:22:16",1
"17/06/16","22:40",0.0,18.0,68.4,1006.2,337.9,2.1,4.0,334.0,0.00,12.1,21.1,"22:36:00",1
"17/06/16","22:50",0.0,17.8,71.2,1006.2,324.5,1.3,2.5,341.5,0.00,12.6,21.0,"22:40:08",1
"17/06/16","23:00",0.0,17.5,72.0,1006.4,310.8,1.0,2.7,334.3,0.00,12.4,21.0,"22:56:40",1
"17/06/16","23:10",0.0,17.5,71.7,1006.0,308.8,1.5,2.5,332.9,0.00,12.4,21.0,"23:08:48",1
"17/06/16","23:20",0.0,17.5,71.2,1006.4,315.0,1.2,1.9,313.8,0.00,12.3,21.0,"23:19:36",1
"17/06/16","23:30",0.0,17.4,71.5,1006.2,311.6,1.1,1.7,307.7,0.00,12.2,20.9,"23:24:24",1
"17/06/16","23:40",0.0,17.1,72.1,1006.2,296.4,1.0,1.7,316.1,0.00,12.1,20.8,"23:30:16",1
"17/06/16","23:50",0.0,16.9,73.1,1005.7,323.9,1.5,3.3,327.8,0.00,12.1,20.7,"23:48:56",1
"17/06/16","24:00",0.0,16.7,74.0,1005.5,321.3,1.1,1.9,330.7,0.00,12.1,20.5,"23:51:04",1
